Weather History for St. Petersburg, FL

Change the Weather History Date:

Friday, October 29, 2010

  Actual Average Record
Temperature  
Mean Temperature 80 °F -  
Max Temperature 86 °F 81 °F 91 °F (1978)
Min Temperature 75 °F 66 °F 49 °F (1952)
Cooling Degree Days 14    
Growing Degree Days 30 (Base 50)    
Moisture  
Dew Point 65 °F    
Average Humidity 66    
Maximum Humidity 85    
Minimum Humidity 31    
Precipitation  
Precipitation 0.00 in - - ()
Sea Level Pressure  
Sea Level Pressure 30.02 in    
Wind  
Wind Speed 9 mph (NNE)    
Max Wind Speed 21 mph    
Max Gust Speed 23 mph    
Visibility 10 miles    
Events      
Averages and records for this station are not official NWS values.
T = Trace of Precipitation, MM = Missing Value Source: NWS Daily Summary

Daily Weather History Graph

Daily Weather History Graph

Search for Another Location

Airport:

Trip Planner

Search our weather history database for the weather conditions in past years. The results will help you decide how hot, cold, wet, or windy it might be!

Date:

Astronomy

Oct. 29, 2010 Rise Set
Actual Time 7:39 AM EDT 6:48 PM EDT
Civil Twilight 7:15 AM EDT 7:12 PM EDT
Nautical Twilight 6:47 AM EDT 7:40 PM EDT
Astronomical Twilight 6:20 AM EDT 8:07 PM EDT
Moon No Moon Rise 1:30 PM EDT (10/29)
Length of Visible Light 11h 57m
Length of Day
11h 09m
Waning Gibbous, 60% of the Moon is Illuminated
Oct 29
Waning Gibbous
Oct 30
Last Quarter
Nov 6
New
Nov 13
First Quarter
Nov 21
Full

Hourly Weather History & Observations

Time (EDT) Temp. Heat Index Dew Point Humidity Pressure Visibility Wind Dir Wind Speed Gust Speed Precip Events Conditions
12:53 AM 79.0 °F - 73.9 °F 84% 30.02 in 10.0 mi North 5.8 mph - N/A   Clear
1:53 AM 79.0 °F - 73.0 °F 82% 30.01 in 10.0 mi North 3.5 mph - N/A   Clear
2:53 AM 78.1 °F - 73.0 °F 84% 30.00 in 10.0 mi North 4.6 mph - N/A   Partly Cloudy
3:53 AM 78.1 °F - 73.0 °F 84% 29.98 in 10.0 mi North 4.6 mph - N/A   Partly Cloudy
4:29 AM 78.8 °F - 73.4 °F 83% 29.98 in 10.0 mi Calm Calm - N/A   Mostly Cloudy
4:39 AM 78.8 °F - 71.6 °F 78% 29.98 in 10.0 mi NE 11.5 mph 16.1 mph N/A   Mostly Cloudy
4:53 AM 78.1 °F - 72.0 °F 81% 29.98 in 10.0 mi NNE 9.2 mph - N/A   Mostly Cloudy
5:25 AM 77.0 °F - 71.6 °F 83% 29.99 in 10.0 mi NNE 10.4 mph - N/A   Mostly Cloudy
5:51 AM 77.0 °F - 71.6 °F 83% 29.99 in 10.0 mi NNE 9.2 mph - N/A   Partly Cloudy
5:53 AM 77.0 °F - 71.1 °F 82% 29.99 in 10.0 mi NNE 10.4 mph - N/A   Partly Cloudy
6:53 AM 75.9 °F - 71.1 °F 85% 30.01 in 10.0 mi NNE 13.8 mph - N/A   Overcast
7:53 AM 75.9 °F - 70.0 °F 82% 30.03 in 10.0 mi NNE 12.7 mph 23.0 mph N/A   Mostly Cloudy
8:53 AM 77.0 °F - 69.1 °F 76% 30.05 in 10.0 mi NE 11.5 mph - N/A   Mostly Cloudy
9:53 AM 77.0 °F - 69.1 °F 76% 30.06 in 10.0 mi NE 13.8 mph - N/A   Mostly Cloudy
10:13 AM 77.0 °F - 66.2 °F 69% 30.06 in 10.0 mi NNE 13.8 mph - N/A   Mostly Cloudy
10:53 AM 77.0 °F - 61.0 °F 58% 30.07 in 10.0 mi NE 12.7 mph - N/A   Mostly Cloudy
11:00 AM 77.0 °F - 60.8 °F 57% 30.07 in 10.0 mi NNE 13.8 mph - N/A   Scattered Clouds
11:53 AM 79.0 °F - 60.1 °F 52% 30.06 in 10.0 mi NE 11.5 mph - N/A   Clear
12:53 PM 79.0 °F - 62.1 °F 56% 30.06 in 10.0 mi NE 11.5 mph - N/A   Partly Cloudy
1:53 PM 82.0 °F 82.7 °F 61.0 °F 49% 30.03 in 10.0 mi East 3.5 mph - N/A   Clear
2:53 PM 82.0 °F 82.7 °F 61.0 °F 49% 30.01 in 10.0 mi SE 6.9 mph - N/A   Clear
3:53 PM 84.9 °F 83.3 °F 54.0 °F 34% 29.99 in 10.0 mi NNE 5.8 mph - N/A   Clear
4:53 PM 84.9 °F - 51.1 °F 31% 29.99 in 10.0 mi North 9.2 mph - N/A   Clear
5:53 PM 82.0 °F 81.4 °F 55.0 °F 39% 30.00 in 10.0 mi North 9.2 mph - N/A   Clear
6:53 PM 80.1 °F 80.0 °F 54.0 °F 40% 30.01 in 10.0 mi North 9.2 mph - N/A   Clear
7:53 PM 77.0 °F - 57.9 °F 52% 30.04 in 10.0 mi North 6.9 mph - N/A   Clear
8:53 PM 77.0 °F - 60.1 °F 56% 30.05 in 10.0 mi NNE 6.9 mph - N/A   Clear
9:53 PM 78.1 °F - 61.0 °F 56% 30.07 in 10.0 mi ENE 20.7 mph - N/A   Clear
10:53 PM 75.9 °F - 63.0 °F 64% 30.08 in 10.0 mi ENE 20.7 mph - N/A   Clear
11:53 PM 75.0 °F - 64.0 °F 69% 30.08 in 10.0 mi ENE 20.7 mph - N/A   Clear